Weather History for KSAT - October, 2012

Change the Weather History Date:

Thursday, October 18, 2012

  Actual Average Record
Temperature  
Mean Temperature 70 °F 71 °F  
Max Temperature 80 °F 82 °F 93 °F (1895)
Min Temperature 60 °F 60 °F 45 °F (1975)
Degree Days  
Heating Degree Days 0 1  
Month to date heating degree days 15 7  
Since 1 July heating degree days 15 9  
Cooling Degree Days 5 7  
Month to date cooling degree days 158 151  
Year to date cooling degree days 3398 2985  
Growing Degree Days 22 (Base 50)    
Moisture  
Dew Point 46 °F    
Average Humidity 42    
Maximum Humidity 57    
Minimum Humidity 27    
Precipitation  
Precipitation 0.00 in 0.15 in 3.16 in (1998)
Month to date precipitation 1.02 2.44  
Year to date precipitation 37.38 26.41  
Snow  
Snow 0.00 in - - ()
Month to date snowfall 0.0  
Since 1 July snowfall 0.0  
Since 1 September snowfall 0.0  
Snow Depth 0.00 in    
Sea Level Pressure  
Sea Level Pressure 29.85 in    
Wind  
Wind Speed 9 mph (NE)    
Max Wind Speed 21 mph    
Max Gust Speed 29 mph    
Visibility 10 miles    
Events      
T = Trace of Precipitation, MM = Missing Value Source: NWS Daily Summary

Daily Weather History Graph

Daily Weather History Graph

Search for Another Location

Airport or City:

Trip Planner

Search our weather history database for the weather conditions in past years. The results will help you decide how hot, cold, wet, or windy it might be!

Date:

Astronomy

Oct. 18, 2012 Rise Set
Actual Time 7:37 AM CDT 6:59 PM CDT
Civil Twilight 7:13 AM CDT 7:23 PM CDT
Nautical Twilight 6:45 AM CDT 7:51 PM CDT
Astronomical Twilight 6:18 AM CDT 8:19 PM CDT
Moon 11:05 AM CDT (10/18) 9:51 PM CDT (10/18)
Length of Visible Light 12h 10m
Length of Day
11h 22m
Waxing Crescent, 14% of the Moon is Illuminated
Oct 18
Waxing Crescent
Oct 21
First Quarter
Oct 29
Full
Nov 6
Last Quarter
Nov 13
New

Hourly Weather History & Observations

Time (CDT) Temp. Dew Point Humidity Pressure Visibility Wind Dir Wind Speed Gust Speed Precip Events Conditions
12:53 AM 73.9 °F 57.0 °F 55% 29.71 in 10.0 mi NNE 8.1 mph - N/A   Partly Cloudy
1:53 AM 72.0 °F 55.0 °F 55% 29.72 in 10.0 mi NE 6.9 mph - N/A   Partly Cloudy
2:53 AM 72.0 °F 54.0 °F 53% 29.72 in 10.0 mi NE 8.1 mph - N/A   Partly Cloudy
3:53 AM 70.0 °F 52.0 °F 53% 29.72 in 10.0 mi NNE 6.9 mph - N/A   Partly Cloudy
4:53 AM 69.8 °F 51.8 °F 53% 29.80 in 10.0 mi NNE 6.9 mph - N/A   Partly Cloudy
5:53 AM 69.1 °F 51.1 °F 53% 29.77 in 10.0 mi NNE 8.1 mph 16.1 mph N/A   Partly Cloudy
6:53 AM 68.0 °F 46.9 °F 47% 29.80 in 10.0 mi NE 9.2 mph - N/A   Partly Cloudy
7:53 AM 66.9 °F 45.0 °F 45% 29.84 in 10.0 mi NE 10.4 mph 20.7 mph N/A   Mostly Cloudy
8:53 AM 68.0 °F 46.9 °F 47% 29.86 in 10.0 mi NE 11.5 mph - N/A   Mostly Cloudy
9:53 AM 71.1 °F 46.0 °F 41% 29.89 in 10.0 mi NE 13.8 mph 24.2 mph N/A   Scattered Clouds
10:53 AM 73.9 °F 45.0 °F 35% 29.90 in 10.0 mi NE 17.3 mph 25.3 mph N/A   Mostly Cloudy
11:53 AM 77.0 °F 44.1 °F 31% 29.90 in 10.0 mi NE 15.0 mph 21.9 mph N/A   Mostly Cloudy
12:53 PM 78.1 °F 41.0 °F 27% 29.88 in 10.0 mi NE 17.3 mph 25.3 mph N/A   Scattered Clouds
1:53 PM 79.0 °F 45.0 °F 30% 29.86 in 10.0 mi ENE 10.4 mph - N/A   Mostly Cloudy
2:53 PM 78.1 °F 46.0 °F 32% 29.86 in 10.0 mi ENE 15.0 mph 21.9 mph N/A   Scattered Clouds
3:53 PM 80.1 °F 48.0 °F 32% 29.85 in 10.0 mi NE 10.4 mph - N/A   Scattered Clouds
4:53 PM 79.0 °F 45.0 °F 30% 29.85 in 10.0 mi ENE 11.5 mph 19.6 mph N/A   Partly Cloudy
5:53 PM 77.0 °F 42.1 °F 29% 29.85 in 10.0 mi NE 11.5 mph 17.3 mph N/A   Partly Cloudy
6:53 PM 73.9 °F 42.1 °F 32% 29.87 in 10.0 mi NE 8.1 mph - N/A   Partly Cloudy
7:53 PM 69.1 °F 44.1 °F 40% 29.90 in 10.0 mi NNE 4.6 mph - N/A   Partly Cloudy
8:53 PM 66.9 °F 45.0 °F 45% 29.92 in 10.0 mi NE 3.5 mph - N/A   Partly Cloudy
9:53 PM 64.9 °F 45.0 °F 48% 29.94 in 10.0 mi NNE 5.8 mph - N/A   Partly Cloudy
10:53 PM 64.0 °F 44.1 °F 48% 29.95 in 10.0 mi ENE 3.5 mph - N/A   Clear
11:53 PM 62.1 °F 43.0 °F 50% 29.96 in 10.0 mi NE 4.6 mph - N/A   Clear